Location: Apollinopolis Magna
(24.9792°N, 32.8772°E)
Time: 04:35:14
(UTC+00:00)

Cosmos 1933 Rocket - Pass Details

Date: 02 March 2021
Orbit: 607 x 629 km, 82.5° (Epoch: 12 April)

Event Time Altitude Azimuth Distance (km) Brightness Sun altitude
Rises 16:56:05 0° 186° (S) 2,849 7.1 -15.5°
Reaches altitude 10° 16:58:17 10° 187° (S) 1,950 6.2 -16.0°
Maximum altitude 17:02:35 82° 274° (W) 618 3.5 -17.0°
Drops below altitude 10° 17:06:57 10° 3° (N) 1,968 6.1 -17.9°
Sets 17:09:11 0° 4° (N) 2,878 7.0 -18.4°
